Regional Weather Roundup
Issued by NWS

Home | Current Version | Previous Version | Graphics & Text | Print | Product List | Glossary Off
Versions: 1 2 3 4 5 6 7 8 9 10 11 12 13 14 15 16 17 18 19 20 21 22 23 24 25 26 27 28 29 30 31 32 33 34 35 36 37 38 39 40 41 42 43 44 45 46 47 48 49 50

000
ASUS43 KMKX 241621
RWRWI

WISCONSIN REGIONAL WEATHER ROUNDUP
NATIONAL WEATHER SERVICE MILWAUKEE/SULLIVAN WI
1100 AM CDT TUE APR 24 2018

NOTE: "FAIR" INDICATES FEW OR NO CLOUDS BELOW 12,000 FEET WITH NO
SIGNIFICANT WEATHER AND/OR OBSTRUCTIONS TO VISIBILITY.

WIZ001-002-006>008-014>016-023>028-241700-
NORTHWEST WISCONSIN

CITY           SKY/WX    TMP DP  RH WIND       PRES   REMARKS
SUPERIOR ARPT  PTSUNNY   47  31  53 NE12      30.23S
ASHLAND        FAIR      48  31  51 NE14      30.21S
HAYWARD        PTSUNNY   54  31  41 NE12      30.18R
SIREN          FAIR      58  29  33 N12       30.18S
CUMBERLAND     CLOUDY    52  30  43 N14G20    30.16R
RICE LAKE      PTSUNNY   59  33  38 N12       30.16R
CHETEK         PTSUNNY   59  37  43 NW3       30.13S
LADYSMITH      FAIR      61  34  36 NE12G17   30.14S
EAU CLAIRE     FAIR      66  38  35 N7        30.10S
MENOMONIE      FAIR      66  37  33 NW5       30.11S
NEW RICHMOND   PTSUNNY   57  35  42 NE12      30.15R
OSCEOLA        FAIR      59  34  39 N13       30.19R
$$

WIZ003>005-009-010-017-018-241700-
NORTH CENTRAL WISCONSIN

CITY           SKY/WX    TMP DP  RH WIND       PRES   REMARKS
MANITOWISH WTR FAIR      52  31  44 N8        30.13S
ARBOR VITAE    FAIR      55  33  43 N10       30.13S
WOODRUFF       FAIR      55  33  43 N10       30.13S
RHINELANDER    FAIR      59  32  36 NW6       30.10F
EAGLE RIVER    FAIR      55  29  37 N9        30.11S
LAND O LAKES   FAIR      52  31  43 N8        30.14F
PHILLIPS       PTSUNNY   58  33  39 NE8       30.12R
TOMAHAWK       FAIR      60  31  34 W5        30.11S
MEDFORD        FAIR      60  37  41 CALM      30.09F
MERRILL        FAIR      63  35  34 CALM      30.09F
$$

WIZ029-030-035-036-043>047-241700-
CENTRAL WISCONSIN

CITY           SKY/WX    TMP DP  RH WIND       PRES   REMARKS
WAUSAU         FAIR      64  32  30 N6        30.07F
MOSINEE        MOSUNNY   63  30  29 N7        30.10F
MARSHFIELD     FAIR      65  34  31 VRB6      30.08F
STEVENS POINT  FAIR      63  31  30 N7        30.09F
WAUPACA        FAIR      65  30  26 NE6       30.08F
WAUTOMA        FAIR      65  30  27 CALM      30.07F
WISC RAPIDS    FAIR      66  30  26 N3        30.09F
CAMP DOUGLAS   NOT AVBL
$$

WIZ011>013-019>022-031-037>040-048>050-241700-
NORTHEAST WISCONSIN

CITY           SKY/WX    TMP DP  RH WIND       PRES   REMARKS
ANTIGO         FAIR      60  35  40 CALM      30.09F
SHAWANO        FAIR      63  32  31 E5        30.08F
OCONTO         FAIR      58  33  37 E3        30.09S
STURGEON BAY   FAIR      59  30  33 VRB3      30.09F
GREEN BAY      FAIR      59  31  34 NE7       30.08F
MANITOWOC      CLOUDY    55  42  61 E8        30.09S
APPLETON       MOSUNNY   61  23  23 N6        30.07S
CLINTONVILLE   FAIR      60  29  30 CALM      30.08F
OSHKOSH        FAIR      61  32  33 NE6       30.07F
$$

WIZ032>034-041-042-053>061-241700-
SOUTHWEST WISCONSIN

CITY           SKY/WX    TMP DP  RH WIND       PRES   REMARKS
LA CROSSE      FAIR      62  35  36 NW6       30.10S
SPARTA         FAIR      66  32  28 N5        30.10S
VIROQUA        FAIR      65  35  33 NE6       30.09S
BOSCOBEL       FAIR      67  32  27 VRB6      30.09F
PRAIRIE DU CHI FAIR      62  32  32 CALM      30.09F
PLATTEVILLE    FAIR      65  32  28 N13       30.08F
$$

WIZ056-057-062-063-064-067-068-241700-
SOUTH CENTRAL WISCONSIN

CITY           SKY/WX    TMP DP  RH WIND       PRES   REMARKS
REEDSBURG      FAIR      64  31  28 N6        30.08F
BARABOO/DELLS  FAIR      63  28  27 N6        30.08F
LONE ROCK      FAIR      65  35  33 VRB5      30.08F
MINERAL POINT  FAIR      64  25  22 NE12      30.08F
MADISON        PTSUNNY   63  30  28 N12       30.07F
MIDDLETON      FAIR      64  28  25 N8        30.08S
WATERTOWN      FAIR      61  34  35 NE9       30.06F
MONROE         FAIR      63  27  25 N12G17    30.06F
JANESVILLE     SUNNY     64  25  22 N9        30.06S
$$

WIZ051-052-058>065-066-070>072-241700-
SOUTHEAST WISCONSIN

CITY           SKY/WX    TMP DP  RH WIND       PRES   REMARKS
MILWAUKEE      PTSUNNY   54  35  48 NE8       30.08F
WAUKESHA       SUNNY     59  28  31 NE10      30.07F
MILWAUKEE/TIMM SUNNY     57  28  33 N6        30.08F
RACINE         CLOUDY    52  34  50 N8        30.09S
BURLINGTON     FAIR      61  36  39 NE6       30.05F
KENOSHA        FAIR      60  45  57 NE7       30.06F
FOND DU LAC    FAIR      59  34  39 NE8       30.07F
SHEBOYGAN      FAIR      53  42  66 E12       30.07S
WEST BEND      FAIR      63  27  25 NE9       30.06F
JUNEAU         FAIR      60  31  32 N6        30.08S
$$

LSZ147-162-241700-
LAKE SUPERIOR

STATION/POSITION TIME  TEMP    WIND        PRES    WAVE
                       AIR SEA DIR/SP/G            HT/PER
                 (UTC) (F)     (DEG/KT/KT) (MB)    (FT/S)
DEVILS ISLAND    1600   45      60/ 11/ 11 1023.8F
SAXON HARBOR     1540   37     340/  5/  6 1023.0R
$$

LMZ867-665-643>646-241700-
LAKE MICHIGAN

STATION/POSITION TIME  TEMP    WIND        PRES    WAVE
                       AIR SEA DIR/SP/G            HT/PER
                 (UTC) (F)     (DEG/KT/KT) (MB)    (FT/S)
NORTHPORT PIER   1540   40                 1019.0F
KEWAUNEE LAKESHO 1554   44      20/  3/  6 1018.2F
SHEBOYGAN LAKESH 1600   38      20/  6/  6 1018.8F
PORT WASHINGTON  1540   43      80/  2/  4 1019.6S
MILWAUKEE LAKESH 1600   40      50/  7/  7   N/A
KENOSHA   LAKESH 1600   42                 1018.3
$$

TC  - TEMPERATURE IN CELSIUS
VSB - VISIBILITY IN STATUTE MILES
WCI - WIND CHILL INDEX
HX  - HEAT INDEX




USA.gov is the U.S. government's official web portal to all federal, state and local government web resources and services.